Time,TemperatureF,DewpointF,PressureIn,WindDirection,WindDirectionDegrees,WindSpeedMPH,WindSpeedGustMPH,Humidity,HourlyPrecipIn,Conditions,Clouds,dailyrainin,SoftwareType,DateUTC
2013-03-25 00:00:00,44.9,42.7,30.02,NNW,344,0.0,0.0,92,0.00,,,0.00,Wunderground v.1.15,2013-03-25 07:00:00,
2013-03-25 00:10:00,44.9,42.7,30.02,NNW,344,0.0,0.0,92,0.00,,,0.00,Wunderground v.1.15,2013-03-25 07:10:00,
2013-03-25 00:15:00,45.0,42.8,30.02,NNW,344,0.0,0.0,92,0.00,,,0.00,Wunderground v.1.15,2013-03-25 07:15:00,
2013-03-25 00:25:00,44.9,42.7,30.01,NNW,344,0.0,0.0,92,0.00,,,0.00,Wunderground v.1.15,2013-03-25 07:25:00,
2013-03-25 00:35:00,44.9,42.7,30.01,NNW,344,0.0,0.0,92,0.00,,,0.00,Wunderground v.1.15,2013-03-25 07:35:00,
2013-03-25 00:40:00,44.8,42.6,30.01,NNW,344,0.0,0.0,92,0.00,,,0.00,Wunderground v.1.15,2013-03-25 07:40:00,
2013-03-25 00:50:00,44.6,42.4,30.02,NNW,344,0.0,0.0,92,0.00,,,0.00,Wunderground v.1.15,2013-03-25 07:50:00,
2013-03-25 00:55:00,44.5,42.3,30.01,NNW,344,0.0,0.0,92,0.00,,,0.00,Wunderground v.1.15,2013-03-25 07:55:00,
2013-03-25 01:00:00,44.3,42.1,30.01,NNW,344,0.0,0.0,92,0.00,,,0.00,Wunderground v.1.15,2013-03-25 08:00:00,
2013-03-25 01:10:00,44.1,41.9,30.01,NNW,344,0.0,0.0,92,0.00,,,0.00,Wunderground v.1.15,2013-03-25 08:10:00,
2013-03-25 01:20:00,44.0,42.1,30.02,NNW,344,0.0,0.0,93,0.00,,,0.00,Wunderground v.1.15,2013-03-25 08:20:00,
2013-03-25 01:30:00,43.7,41.5,30.02,NNW,344,0.0,0.0,92,0.00,,,0.00,Wunderground v.1.15,2013-03-25 08:30:00,
2013-03-25 01:40:00,43.5,41.6,30.01,NNW,344,0.0,0.0,93,0.00,,,0.00,Wunderground v.1.15,2013-03-25 08:40:00,
2013-03-25 01:50:00,43.4,41.5,30.02,NNW,344,0.0,0.0,93,0.00,,,0.00,Wunderground v.1.15,2013-03-25 08:50:00,
2013-03-25 01:55:00,43.3,41.4,30.02,NNW,344,0.0,0.0,93,0.00,,,0.00,Wunderground v.1.15,2013-03-25 08:55:00,
2013-03-25 02:00:00,43.1,41.2,30.02,NNW,344,0.0,0.0,93,0.00,,,0.00,Wunderground v.1.15,2013-03-25 09:00:00,
2013-03-25 02:10:00,42.9,41.0,30.01,NNW,344,0.0,0.0,93,0.00,,,0.00,Wunderground v.1.15,2013-03-25 09:10:00,
2013-03-25 02:20:00,42.7,40.8,30.01,NNW,344,0.0,0.0,93,0.00,,,0.00,Wunderground v.1.15,2013-03-25 09:20:00,
2013-03-25 02:25:00,42.5,40.6,30.01,NNW,344,0.0,0.0,93,0.00,,,0.00,Wunderground v.1.15,2013-03-25 09:25:00,
2013-03-25 02:35:00,42.5,40.6,30.01,NNW,344,0.0,0.0,93,0.00,,,0.00,Wunderground v.1.15,2013-03-25 09:35:00,
2013-03-25 02:40:00,42.4,40.5,30.01,NNW,344,0.0,0.0,93,0.00,,,0.00,Wunderground v.1.15,2013-03-25 09:40:00,
2013-03-25 02:50:00,42.2,40.3,30.01,NNW,344,0.0,0.0,93,0.00,,,0.00,Wunderground v.1.15,2013-03-25 09:50:00,
2013-03-25 03:00:00,41.9,40.0,30.01,NNW,344,0.0,0.0,93,0.00,,,0.00,Wunderground v.1.15,2013-03-25 10:00:00,
2013-03-25 03:10:00,41.9,40.3,30.01,NNW,344,0.0,0.0,94,0.00,,,0.00,Wunderground v.1.15,2013-03-25 10:10:00,
2013-03-25 03:20:00,41.8,40.2,30.01,NNW,344,0.0,0.0,94,0.00,,,0.00,Wunderground v.1.15,2013-03-25 10:20:00,
2013-03-25 03:30:00,41.6,40.0,30.01,NNW,344,0.0,0.0,94,0.00,,,0.00,Wunderground v.1.15,2013-03-25 10:30:00,
2013-03-25 03:35:00,41.5,39.9,30.00,NNW,344,0.0,0.0,94,0.00,,,0.00,Wunderground v.1.15,2013-03-25 10:35:00,
2013-03-25 03:45:00,41.4,39.8,30.00,NNW,344,0.0,0.0,94,0.00,,,0.00,Wunderground v.1.15,2013-03-25 10:45:00,
2013-03-25 03:55:00,41.2,39.6,30.00,NNW,344,0.0,0.0,94,0.00,,,0.00,Wunderground v.1.15,2013-03-25 10:55:00,
2013-03-25 04:00:00,41.2,39.6,30.00,NNW,344,0.0,0.0,94,0.00,,,0.00,Wunderground v.1.15,2013-03-25 11:00:00,
2013-03-25 04:10:00,41.0,39.4,30.00,NNW,344,0.0,0.0,94,0.00,,,0.00,Wunderground v.1.15,2013-03-25 11:10:00,
2013-03-25 04:20:00,40.8,39.2,30.00,NNW,344,0.0,0.0,94,0.00,,,0.00,Wunderground v.1.15,2013-03-25 11:20:00,
2013-03-25 04:30:00,40.8,39.2,30.00,NNW,344,0.0,0.0,94,0.00,,,0.00,Wunderground v.1.15,2013-03-25 11:30:00,
2013-03-25 04:40:00,40.7,39.1,30.00,NNW,344,0.0,0.0,94,0.00,,,0.00,Wunderground v.1.15,2013-03-25 11:40:00,
2013-03-25 04:45:00,40.7,39.1,30.00,NNW,344,0.0,0.0,94,0.00,,,0.00,Wunderground v.1.15,2013-03-25 11:45:00,
2013-03-25 04:55:00,40.5,38.9,30.00,NNW,344,0.0,0.0,94,0.00,,,0.00,Wunderground v.1.15,2013-03-25 11:55:00,
2013-03-25 05:00:00,40.4,38.8,30.00,NNW,344,0.0,0.0,94,0.00,,,0.00,Wunderground v.1.15,2013-03-25 12:00:00,
2013-03-25 05:05:00,40.4,38.8,30.00,NNW,344,0.0,0.0,94,0.00,,,0.00,Wunderground v.1.15,2013-03-25 12:05:00,
2013-03-25 05:15:00,40.4,39.1,30.00,NNW,344,0.0,0.0,95,0.00,,,0.00,Wunderground v.1.15,2013-03-25 12:15:00,
2013-03-25 05:25:00,40.4,39.1,30.00,NNW,344,0.0,0.0,95,0.00,,,0.00,Wunderground v.1.15,2013-03-25 12:25:00,
2013-03-25 05:35:00,40.4,39.1,30.00,NNW,344,0.0,0.0,95,0.00,,,0.00,Wunderground v.1.15,2013-03-25 12:35:00,
2013-03-25 05:40:00,40.3,39.0,30.00,NNW,344,0.0,0.0,95,0.00,,,0.00,Wunderground v.1.15,2013-03-25 12:40:00,
2013-03-25 05:50:00,40.0,38.7,30.00,NNW,344,0.0,0.0,95,0.00,,,0.00,Wunderground v.1.15,2013-03-25 12:50:00,
2013-03-25 06:00:00,39.7,38.1,30.00,NNW,344,0.0,0.0,94,0.00,,,0.00,Wunderground v.1.15,2013-03-25 13:00:00,
2013-03-25 06:10:00,39.6,38.3,30.01,NNW,344,0.0,0.0,95,0.00,,,0.00,Wunderground v.1.15,2013-03-25 13:10:00,
2013-03-25 06:20:00,39.7,38.4,30.01,NNW,344,0.0,0.0,95,0.00,,,0.00,Wunderground v.1.15,2013-03-25 13:20:00,
2013-03-25 06:25:00,39.7,38.4,30.01,NNW,344,0.0,0.0,95,0.00,,,0.00,Wunderground v.1.15,2013-03-25 13:25:00,
2013-03-25 06:35:00,39.6,38.3,30.01,NNW,344,0.0,0.0,95,0.00,,,0.00,Wunderground v.1.15,2013-03-25 13:35:00,
2013-03-25 06:40:00,39.6,38.3,30.01,NNW,344,0.0,0.0,95,0.00,,,0.00,Wunderground v.1.15,2013-03-25 13:40:00,
2013-03-25 06:50:00,39.8,38.5,30.01,NNW,344,0.0,0.0,95,0.00,,,0.00,Wunderground v.1.15,2013-03-25 13:50:00,
2013-03-25 07:00:00,39.9,38.6,30.02,NNW,344,0.0,0.0,95,0.00,,,0.00,Wunderground v.1.15,2013-03-25 14:00:00,
2013-03-25 07:05:00,39.8,38.5,30.02,NNW,344,0.0,0.0,95,0.00,,,0.00,Wunderground v.1.15,2013-03-25 14:05:00,
2013-03-25 07:10:00,39.8,38.5,30.01,NNW,344,0.0,0.0,95,0.00,,,0.00,Wunderground v.1.15,2013-03-25 14:10:00,
2013-03-25 07:20:00,39.6,38.3,30.02,NNW,344,0.0,0.0,95,0.00,,,0.00,Wunderground v.1.15,2013-03-25 14:20:00,
2013-03-25 07:30:00,39.6,38.3,30.02,NNW,344,0.0,0.0,95,0.00,,,0.00,Wunderground v.1.15,2013-03-25 14:30:00,
2013-03-25 07:35:00,39.8,38.5,30.02,NNW,344,0.0,0.0,95,0.00,,,0.00,Wunderground v.1.15,2013-03-25 14:35:00,
2013-03-25 07:45:00,40.3,39.0,30.02,NNW,344,0.0,0.0,95,0.00,,,0.00,Wunderground v.1.15,2013-03-25 14:45:00,
2013-03-25 07:50:00,40.7,39.4,30.02,SE,135,0.0,0.0,95,0.00,,,0.00,Wunderground v.1.15,2013-03-25 14:50:00,
2013-03-25 08:00:00,41.4,40.3,30.02,SE,135,0.0,0.0,96,0.00,,,0.00,Wunderground v.1.15,2013-03-25 15:00:00,
2013-03-25 08:10:00,42.3,41.2,30.02,SE,135,0.0,0.0,96,0.00,,,0.00,Wunderground v.1.15,2013-03-25 15:10:00,
2013-03-25 08:20:00,43.3,42.2,30.02,SE,135,0.0,0.0,96,0.00,,,0.00,Wunderground v.1.15,2013-03-25 15:20:00,
2013-03-25 08:30:00,44.3,43.2,30.02,SE,135,0.0,0.0,96,0.00,,,0.00,Wunderground v.1.15,2013-03-25 15:30:00,
2013-03-25 08:40:00,45.8,44.7,30.02,ENE,76,0.0,2.0,96,0.00,,,0.00,Wunderground v.1.15,2013-03-25 15:40:00,
2013-03-25 08:50:00,46.6,45.5,30.02,ESE,111,0.0,0.0,96,0.00,,,0.00,Wunderground v.1.15,2013-03-25 15:50:00,
2013-03-25 09:00:00,47.5,46.4,30.02,East,99,0.0,0.0,96,0.00,,,0.00,Wunderground v.1.15,2013-03-25 16:00:00,
2013-03-25 09:10:00,48.3,47.2,30.02,SE,144,0.0,0.0,96,0.00,,,0.00,Wunderground v.1.15,2013-03-25 16:10:00,
2013-03-25 09:20:00,49.6,46.8,30.02,ENE,75,0.0,0.0,90,0.00,,,0.00,Wunderground v.1.15,2013-03-25 16:20:00,
2013-03-25 09:30:00,51.1,47.4,30.02,NNE,31,0.0,0.0,87,0.00,,,0.00,Wunderground v.1.15,2013-03-25 16:30:00,
2013-03-25 09:35:00,51.7,46.7,30.02,East,99,0.0,0.0,83,0.00,,,0.00,Wunderground v.1.15,2013-03-25 16:35:00,
2013-03-25 09:45:00,52.2,46.5,30.02,SSE,163,0.0,0.0,81,0.00,,,0.00,Wunderground v.1.15,2013-03-25 16:45:00,
2013-03-25 09:50:00,52.6,46.9,30.03,NNE,31,0.0,0.0,81,0.00,,,0.00,Wunderground v.1.15,2013-03-25 16:50:00,
2013-03-25 10:00:00,53.6,46.9,30.02,North,360,0.0,0.0,78,0.00,,,0.00,Wunderground v.1.15,2013-03-25 17:00:00,
2013-03-25 10:10:00,54.2,47.5,30.02,North,5,0.0,0.0,78,0.00,,,0.00,Wunderground v.1.15,2013-03-25 17:10:00,
2013-03-25 10:15:00,54.8,47.4,30.02,NW,323,0.0,1.0,76,0.00,,,0.00,Wunderground v.1.15,2013-03-25 17:15:00,
2013-03-25 10:25:00,55.6,47.4,30.03,NNW,336,1.0,3.0,74,0.00,,,0.00,Wunderground v.1.15,2013-03-25 17:25:00,
2013-03-25 10:35:00,55.9,47.4,30.03,WNW,294,1.0,2.0,73,0.00,,,0.00,Wunderground v.1.15,2013-03-25 17:35:00,
2013-03-25 10:45:00,56.4,47.1,30.03,NNW,338,0.0,1.0,71,0.00,,,0.00,Wunderground v.1.15,2013-03-25 17:45:00,
2013-03-25 10:50:00,56.9,47.2,30.03,NNW,338,0.0,0.0,70,0.00,,,0.00,Wunderground v.1.15,2013-03-25 17:50:00,
2013-03-25 11:00:00,57.8,47.3,30.03,West,270,0.0,0.0,68,0.00,,,0.00,Wunderground v.1.15,2013-03-25 18:00:00,
2013-03-25 11:10:00,57.9,47.8,30.03,NNW,340,0.0,0.0,69,0.00,,,0.00,Wunderground v.1.15,2013-03-25 18:10:00,
2013-03-25 11:15:00,58.3,47.8,30.03,NNW,336,0.0,0.0,68,0.00,,,0.00,Wunderground v.1.15,2013-03-25 18:15:00,
2013-03-25 11:25:00,58.8,47.9,30.03,NW,306,1.0,1.0,67,0.00,,,0.00,Wunderground v.1.15,2013-03-25 18:25:00,
2013-03-25 11:35:00,59.6,47.8,30.03,North,5,0.0,0.0,65,0.00,,,0.00,Wunderground v.1.15,2013-03-25 18:35:00,
2013-03-25 11:45:00,60.0,47.8,30.03,North,355,0.0,1.0,64,0.00,,,0.00,Wunderground v.1.15,2013-03-25 18:45:00,
2013-03-25 11:50:00,59.8,47.6,30.03,NW,320,1.0,4.0,64,0.00,,,0.00,Wunderground v.1.15,2013-03-25 18:50:00,
2013-03-25 12:00:00,60.0,48.2,30.03,NNE,19,1.0,3.0,65,0.00,,,0.00,Wunderground v.1.15,2013-03-25 19:00:00,
2013-03-25 12:10:00,59.4,48.0,30.03,NNW,336,1.0,3.0,66,0.00,,,0.00,Wunderground v.1.15,2013-03-25 19:10:00,
2013-03-25 12:15:00,59.0,47.7,30.03,NNW,336,1.0,8.0,66,0.00,,,0.00,Wunderground v.1.15,2013-03-25 19:15:00,
2013-03-25 12:25:00,59.4,47.6,30.02,NNE,29,1.0,3.0,65,0.00,,,0.00,Wunderground v.1.15,2013-03-25 19:25:00,
2013-03-25 12:30:00,59.9,47.7,30.02,NNW,344,1.0,1.0,64,0.00,,,0.00,Wunderground v.1.15,2013-03-25 19:30:00,
2013-03-25 12:40:00,60.9,47.8,30.02,ENE,76,0.0,2.0,62,0.00,,,0.00,Wunderground v.1.15,2013-03-25 19:40:00,
2013-03-25 12:50:00,60.3,47.6,30.02,NNE,22,1.0,1.0,63,0.00,,,0.00,Wunderground v.1.15,2013-03-25 19:50:00,
2013-03-25 13:00:00,60.3,47.2,30.02,NNW,329,1.0,2.0,62,0.00,,,0.00,Wunderground v.1.15,2013-03-25 20:00:00,
2013-03-25 13:10:00,60.3,47.6,30.01,NNE,15,1.0,1.0,63,0.00,,,0.00,Wunderground v.1.15,2013-03-25 20:10:00,
2013-03-25 13:20:00,60.6,47.9,30.01,East,97,1.0,3.0,63,0.00,,,0.00,Wunderground v.1.15,2013-03-25 20:20:00,
2013-03-25 13:30:00,60.9,47.4,30.01,NE,44,1.0,1.0,61,0.00,,,0.00,Wunderground v.1.15,2013-03-25 20:30:00,
2013-03-25 13:40:00,61.0,47.4,30.01,NNW,336,2.0,2.0,61,0.00,,,0.00,Wunderground v.1.15,2013-03-25 20:40:00,
2013-03-25 13:45:00,61.5,47.5,30.01,NNE,29,1.0,2.0,60,0.00,,,0.00,Wunderground v.1.15,2013-03-25 20:45:00,
2013-03-25 13:55:00,61.7,47.2,30.01,North,355,1.0,1.0,59,0.00,,,0.00,Wunderground v.1.15,2013-03-25 20:55:00,
2013-03-25 14:00:00,62.1,47.6,30.00,NE,44,1.0,1.0,59,0.00,,,0.00,Wunderground v.1.15,2013-03-25 21:00:00,
2013-03-25 14:05:00,62.6,47.6,30.00,NNW,347,1.0,1.0,58,0.00,,,0.00,Wunderground v.1.15,2013-03-25 21:05:00,
2013-03-25 14:10:00,63.0,47.5,30.00,East,94,1.0,1.0,57,0.00,,,0.00,Wunderground v.1.15,2013-03-25 21:10:00,
2013-03-25 14:20:00,62.9,47.4,29.99,West,275,1.0,1.0,57,0.00,,,0.00,Wunderground v.1.15,2013-03-25 21:20:00,
2013-03-25 14:30:00,63.2,47.2,29.99,NE,51,1.0,1.0,56,0.00,,,0.00,Wunderground v.1.15,2013-03-25 21:30:00,
2013-03-25 14:40:00,63.0,47.1,29.99,NNW,346,1.0,3.0,56,0.00,,,0.00,Wunderground v.1.15,2013-03-25 21:40:00,
2013-03-25 14:45:00,62.7,47.2,29.99,NNW,344,1.0,3.0,57,0.00,,,0.00,Wunderground v.1.15,2013-03-25 21:45:00,
2013-03-25 14:55:00,62.4,47.0,29.98,ESE,102,1.0,2.0,57,0.00,,,0.00,Wunderground v.1.15,2013-03-25 21:55:00,
2013-03-25 15:00:00,62.4,47.0,29.98,NNE,18,2.0,3.0,57,0.00,,,0.00,Wunderground v.1.15,2013-03-25 22:00:00,
2013-03-25 15:10:00,61.5,46.6,29.98,North,5,2.0,2.0,58,0.00,,,0.00,Wunderground v.1.15,2013-03-25 22:10:00,
2013-03-25 15:20:00,61.8,46.9,29.98,NW,314,1.0,1.0,58,0.00,,,0.00,Wunderground v.1.15,2013-03-25 22:20:00,
2013-03-25 15:25:00,62.3,47.3,29.98,North,5,1.0,1.0,58,0.00,,,0.00,Wunderground v.1.15,2013-03-25 22:25:00,
2013-03-25 15:35:00,62.2,46.8,29.97,ENE,62,2.0,2.0,57,0.00,,,0.00,Wunderground v.1.15,2013-03-25 22:35:00,
2013-03-25 15:45:00,62.5,47.1,29.97,East,96,0.0,1.0,57,0.00,,,0.00,Wunderground v.1.15,2013-03-25 22:45:00,
2013-03-25 15:50:00,62.6,47.1,29.97,NNW,344,1.0,3.0,57,0.00,,,0.00,Wunderground v.1.15,2013-03-25 22:50:00,
2013-03-25 16:00:00,62.4,47.0,29.97,NNE,32,0.0,0.0,57,0.00,,,0.00,Wunderground v.1.15,2013-03-25 23:00:00,
2013-03-25 16:05:00,62.0,47.0,29.97,NW,326,0.0,0.0,58,0.00,,,0.00,Wunderground v.1.15,2013-03-25 23:05:00,
2013-03-25 16:15:00,61.9,47.0,29.97,NNW,344,1.0,1.0,58,0.00,,,0.00,Wunderground v.1.15,2013-03-25 23:15:00,
2013-03-25 16:25:00,61.4,46.0,29.97,North,355,1.0,1.0,57,0.00,,,0.00,Wunderground v.1.15,2013-03-25 23:25:00,
2013-03-25 16:35:00,61.3,46.4,29.96,NE,47,1.0,1.0,58,0.00,,,0.00,Wunderground v.1.15,2013-03-25 23:35:00,
2013-03-25 16:45:00,61.4,46.0,29.96,NW,325,1.0,1.0,57,0.00,,,0.00,Wunderground v.1.15,2013-03-25 23:45:00,
2013-03-25 16:55:00,61.1,46.2,29.96,East,92,0.0,1.0,58,0.00,,,0.00,Wunderground v.1.15,2013-03-25 23:55:00,
2013-03-25 17:00:00,61.3,45.9,29.96,ENE,60,1.0,1.0,57,0.00,,,0.00,Wunderground v.1.15,2013-03-26 00:00:00,
2013-03-25 17:10:00,61.4,46.0,29.95,NE,55,0.0,0.0,57,0.00,,,0.00,Wunderground v.1.15,2013-03-26 00:10:00,
2013-03-25 17:20:00,60.4,45.5,29.95,NW,322,0.0,0.0,58,0.00,,,0.00,Wunderground v.1.15,2013-03-26 00:20:00,
2013-03-25 17:25:00,60.1,45.7,29.96,North,351,1.0,1.0,59,0.00,,,0.00,Wunderground v.1.15,2013-03-26 00:25:00,
2013-03-25 17:35:00,59.8,45.4,29.95,NNW,346,1.0,1.0,59,0.00,,,0.00,Wunderground v.1.15,2013-03-26 00:35:00,
2013-03-25 17:45:00,59.0,45.1,29.95,North,9,1.0,1.0,60,0.00,,,0.00,Wunderground v.1.15,2013-03-26 00:45:00,
2013-03-25 17:50:00,58.9,45.0,29.95,NW,317,1.0,1.0,60,0.00,,,0.00,Wunderground v.1.15,2013-03-26 00:50:00,
2013-03-25 18:00:00,58.6,44.8,29.96,North,5,1.0,1.0,60,0.00,,,0.00,Wunderground v.1.15,2013-03-26 01:00:00,
2013-03-25 18:10:00,58.2,44.8,29.96,North,360,0.0,2.0,61,0.00,,,0.00,Wunderground v.1.15,2013-03-26 01:10:00,
2013-03-25 18:15:00,57.7,44.3,29.96,NNW,342,1.0,3.0,61,0.00,,,0.00,Wunderground v.1.15,2013-03-26 01:15:00,
2013-03-25 18:25:00,56.8,43.9,29.97,North,355,1.0,1.0,62,0.00,,,0.00,Wunderground v.1.15,2013-03-26 01:25:00,
2013-03-25 18:35:00,56.2,44.2,29.97,WNW,302,0.0,0.0,64,0.00,,,0.00,Wunderground v.1.15,2013-03-26 01:35:00,
2013-03-25 18:45:00,55.2,44.0,29.97,WSW,258,1.0,1.0,66,0.00,,,0.00,Wunderground v.1.15,2013-03-26 01:45:00,
2013-03-25 18:50:00,54.7,43.6,29.97,SW,216,1.0,1.0,66,0.00,,,0.00,Wunderground v.1.15,2013-03-26 01:50:00,
2013-03-25 19:00:00,53.7,43.4,29.97,WNW,290,1.0,3.0,68,0.00,,,0.00,Wunderground v.1.15,2013-03-26 02:00:00,
2013-03-25 19:10:00,53.0,43.1,29.98,North,5,1.0,2.0,69,0.00,,,0.00,Wunderground v.1.15,2013-03-26 02:10:00,
2013-03-25 19:20:00,52.6,42.7,29.98,NW,309,2.0,2.0,69,0.00,,,0.00,Wunderground v.1.15,2013-03-26 02:20:00,
2013-03-25 19:30:00,52.2,42.7,29.98,WNW,287,1.0,2.0,70,0.00,,,0.00,Wunderground v.1.15,2013-03-26 02:30:00,
2013-03-25 19:35:00,52.0,42.5,29.98,WNW,295,2.0,2.0,70,0.00,,,0.00,Wunderground v.1.15,2013-03-26 02:35:00,
2013-03-25 19:45:00,51.5,42.4,29.98,SSW,204,2.0,3.0,71,0.00,,,0.00,Wunderground v.1.15,2013-03-26 02:45:00,
2013-03-25 19:50:00,51.3,42.6,29.98,SW,235,2.0,2.0,72,0.00,,,0.00,Wunderground v.1.15,2013-03-26 02:50:00,
2013-03-25 20:00:00,51.1,42.4,29.98,WNW,300,0.0,0.0,72,0.00,,,0.00,Wunderground v.1.15,2013-03-26 03:00:00,
2013-03-25 20:10:00,51.1,42.4,29.99,NNW,336,0.0,1.0,72,0.00,,,0.00,Wunderground v.1.15,2013-03-26 03:10:00,
2013-03-25 20:15:00,51.0,42.3,29.99,WNW,288,1.0,1.0,72,0.00,,,0.00,Wunderground v.1.15,2013-03-26 03:15:00,
2013-03-25 20:25:00,50.9,42.6,29.98,West,272,1.0,3.0,73,0.00,,,0.00,Wunderground v.1.15,2013-03-26 03:25:00,
2013-03-25 20:30:00,50.8,42.5,29.98,NW,325,1.0,1.0,73,0.00,,,0.00,Wunderground v.1.15,2013-03-26 03:30:00,
2013-03-25 20:40:00,50.6,42.3,29.97,WNW,288,0.0,2.0,73,0.00,,,0.00,Wunderground v.1.15,2013-03-26 03:40:00,
2013-03-25 20:50:00,50.4,42.4,29.98,NW,304,1.0,1.0,74,0.00,,,0.00,Wunderground v.1.15,2013-03-26 03:50:00,
2013-03-25 21:00:00,49.9,42.3,30.00,West,279,0.0,0.0,75,0.00,,,0.00,Wunderground v.1.15,2013-03-26 04:00:00,
2013-03-25 21:05:00,49.7,42.4,30.00,West,267,1.0,1.0,76,0.00,,,0.00,Wunderground v.1.15,2013-03-26 04:05:00,
2013-03-25 21:15:00,49.4,42.5,30.00,West,271,0.0,1.0,77,0.00,,,0.00,Wunderground v.1.15,2013-03-26 04:15:00,
2013-03-25 21:20:00,49.2,42.3,30.00,West,269,0.0,2.0,77,0.00,,,0.00,Wunderground v.1.15,2013-03-26 04:20:00,
2013-03-25 21:30:00,48.9,42.3,29.99,SSW,200,1.0,1.0,78,0.00,,,0.00,Wunderground v.1.15,2013-03-26 04:30:00,
2013-03-25 21:35:00,48.9,42.3,29.99,SE,146,1.0,1.0,78,0.00,,,0.00,Wunderground v.1.15,2013-03-26 04:35:00,
2013-03-25 21:45:00,48.7,42.1,30.00,SW,227,0.0,1.0,78,0.00,,,0.00,Wunderground v.1.15,2013-03-26 04:45:00,
2013-03-25 21:55:00,48.2,42.0,30.00,WNW,300,0.0,0.0,79,0.00,,,0.00,Wunderground v.1.15,2013-03-26 04:55:00,
2013-03-25 22:00:00,48.0,41.8,30.01,NNW,341,0.0,0.0,79,0.00,,,0.00,Wunderground v.1.15,2013-03-26 05:00:00,
2013-03-25 22:10:00,47.6,41.7,30.01,NW,320,0.0,0.0,80,0.00,,,0.00,Wunderground v.1.15,2013-03-26 05:10:00,
2013-03-25 22:20:00,47.1,41.6,30.02,NW,320,0.0,0.0,81,0.00,,,0.00,Wunderground v.1.15,2013-03-26 05:20:00,
2013-03-25 22:25:00,46.7,41.5,30.01,NW,320,0.0,0.0,82,0.00,,,0.00,Wunderground v.1.15,2013-03-26 05:25:00,
2013-03-25 22:35:00,46.2,41.3,30.01,NW,320,0.0,0.0,83,0.00,,,0.00,Wunderground v.1.15,2013-03-26 05:35:00,
2013-03-25 22:45:00,45.8,41.2,30.01,NW,320,0.0,0.0,84,0.00,,,0.00,Wunderground v.1.15,2013-03-26 05:45:00,
2013-03-25 22:55:00,45.5,41.3,30.01,NW,320,0.0,0.0,85,0.00,,,0.00,Wunderground v.1.15,2013-03-26 05:55:00,
2013-03-25 23:00:00,45.4,41.2,30.01,NW,320,0.0,0.0,85,0.00,,,0.00,Wunderground v.1.15,2013-03-26 06:00:00,
2013-03-25 23:05:00,45.2,41.3,30.01,NW,320,0.0,0.0,86,0.00,,,0.00,Wunderground v.1.15,2013-03-26 06:05:00,
2013-03-25 23:15:00,44.9,41.0,30.01,NW,320,0.0,0.0,86,0.00,,,0.00,Wunderground v.1.15,2013-03-26 06:15:00,
2013-03-25 23:20:00,44.7,40.8,30.02,NW,320,0.0,0.0,86,0.00,,,0.00,Wunderground v.1.15,2013-03-26 06:20:00,
2013-03-25 23:30:00,44.4,40.8,30.02,NW,320,0.0,0.0,87,0.00,,,0.00,Wunderground v.1.15,2013-03-26 06:30:00,
2013-03-25 23:35:00,44.2,40.6,30.02,NW,320,0.0,0.0,87,0.00,,,0.00,Wunderground v.1.15,2013-03-26 06:35:00,
2013-03-25 23:45:00,44.0,40.4,30.02,NW,320,0.0,0.0,87,0.00,,,0.00,Wunderground v.1.15,2013-03-26 06:45:00,
2013-03-25 23:50:00,44.1,40.8,30.02,NW,320,0.0,0.0,88,0.00,,,0.00,Wunderground v.1.15,2013-03-26 06:50:00,